TimeCST,TemperatureF,Dew PointF,Humidity,Sea Level PressureIn,VisibilityMPH,Wind Direction,Wind SpeedMPH,Gust SpeedMPH,PrecipitationIn,Events,Conditions,WindDirDegrees,DateUTC
12:54 AM,36.0,25.0,64,30.11,10.0,SSW,12.7,-,N/A,,Clear,210,2013-01-08 06:54:00
1:54 AM,36.0,24.1,62,30.12,10.0,SSW,10.4,-,N/A,,Clear,210,2013-01-08 07:54:00
2:54 AM,33.1,24.1,70,30.12,10.0,SSW,10.4,-,N/A,,Clear,210,2013-01-08 08:54:00
3:54 AM,33.1,24.1,70,30.12,10.0,SSW,10.4,-,N/A,,Clear,200,2013-01-08 09:54:00
4:54 AM,33.1,23.0,66,30.11,10.0,South,9.2,-,N/A,,Clear,190,2013-01-08 10:54:00
5:54 AM,30.9,23.0,72,30.12,10.0,South,8.1,-,N/A,,Clear,190,2013-01-08 11:54:00
6:54 AM,33.1,23.0,66,30.12,10.0,South,10.4,-,N/A,,Clear,190,2013-01-08 12:54:00
7:54 AM,33.1,23.0,66,30.13,10.0,South,9.2,-,N/A,,Clear,190,2013-01-08 13:54:00
8:54 AM,34.0,24.1,67,30.15,10.0,South,9.2,-,N/A,,Clear,190,2013-01-08 14:54:00
9:54 AM,36.0,25.0,64,30.15,10.0,SSW,10.4,-,N/A,,Clear,200,2013-01-08 15:54:00
10:54 AM,37.9,26.1,62,30.15,10.0,SSW,9.2,-,N/A,,Clear,200,2013-01-08 16:54:00
11:54 AM,42.1,27.0,55,30.11,10.0,South,10.4,-,N/A,,Clear,190,2013-01-08 17:54:00
12:54 PM,44.1,28.0,53,30.09,10.0,SSW,11.5,-,N/A,,Clear,200,2013-01-08 18:54:00
1:54 PM,46.0,28.0,50,30.06,10.0,South,9.2,-,N/A,,Clear,190,2013-01-08 19:54:00
2:54 PM,46.9,28.0,48,30.06,10.0,South,8.1,-,N/A,,Clear,190,2013-01-08 20:54:00
3:54 PM,46.0,28.9,51,30.05,10.0,SSE,6.9,-,N/A,,Clear,160,2013-01-08 21:54:00
4:54 PM,43.0,28.9,58,30.06,10.0,SSE,6.9,-,N/A,,Partly Cloudy,160,2013-01-08 22:54:00
5:54 PM,42.8,28.4,57,30.04,10.0,SSE,6.9,-,N/A,,Overcast,150,2013-01-08 23:54:00
6:54 PM,42.1,27.0,55,30.04,10.0,SSE,5.8,-,N/A,,Mostly Cloudy,160,2013-01-09 00:54:00
7:54 PM,44.1,25.0,47,30.07,10.0,South,5.8,-,N/A,,Overcast,170,2013-01-09 01:54:00
8:54 PM,39.9,27.0,60,30.08,10.0,SSW,9.2,-,N/A,,Clear,200,2013-01-09 02:54:00
9:54 PM,37.9,26.1,62,30.09,10.0,SW,5.8,-,N/A,,Clear,220,2013-01-09 03:54:00
10:54 PM,41.0,26.6,57,30.09,10.0,SW,8.1,-,N/A,,Clear,230,2013-01-09 04:54:00
11:54 PM,39.9,28.0,63,30.12,10.0,SW,10.4,-,N/A,,Clear,220,2013-01-09 05:54:00